Roanoke, VA

4:49 PM EST on December 08, 2019 (GMT -0500)
Roanoke Regional-Woodrum

Weather History for KROA - October, 2019

Change the Weather History Date:

Thursday, October 31, 2019

  Actual Average Record
Temperature  
Mean Temperature 58 °F 53 °F  
Max Temperature 77 °F 65 °F 83 °F (1950)
Min Temperature 40 °F 42 °F 27 °F (1917)
Degree Days  
Heating Degree Days 6 12  
Month to date heating degree days 155 248  
Since 1 July heating degree days 156 297  
Cooling Degree Days 0 0  
Month to date cooling degree days 73 21  
Year to date cooling degree days 1757 1207  
Growing Degree Days 8 (Base 50)    
Moisture  
Dew Point 62 °F    
Average Humidity 91    
Maximum Humidity 100    
Minimum Humidity 49    
Precipitation  
Precipitation 0.80 in 0.10 in 2.76 in (1921)
Month to date precipitation 6.33 2.89  
Year to date precipitation 38.39 34.91  
Snow  
Snow 0.00 in - - ()
Month to date snowfall 0.0  
Since 1 July snowfall T  
Since 1 September snowfall 0.0  
Snow Depth 0.00 in    
Sea Level Pressure  
Sea Level Pressure 29.85 in    
Wind  
Wind Speed 7 mph ()    
Max Wind Speed 32 mph    
Max Gust Speed 45 mph    
Visibility 6.1 miles    
Events Rain    
T = Trace of Precipitation, MM = Missing Value Source: Averaged Metar Reports

Daily Weather History Graph

Daily Weather History Graph

Search for Another Location

Airport or City:

Astronomy

Oct. 31, 2019 Rise Set
Actual Time 7:43 AM EDT 6:23 PM EDT
Civil Twilight 7:16 AM EDT 6:50 PM EDT
Nautical Twilight 6:45 AM EDT 7:20 PM EDT
Astronomical Twilight 6:15 AM EDT 7:51 PM EDT
Moon 11:26 AM EDT (10/31) 9:21 PM EDT (10/31)
Length of Visible Light 11h 33m
Length of Day
10h 40m
Waxing Crescent, 15% of the Moon is Illuminated
Oct 31
Waxing Crescent
Nov 4
First Quarter
Nov 12
Full
Nov 19
Last Quarter
Nov 26
New

Hourly Weather History & Observations

Time (EDT) Temp. Windchill Dew Point Humidity Pressure Visibility Wind Dir Wind Speed Gust Speed Precip Events Conditions
12:02 AM 62.1 °F - 61.0 °F 96% 30.04 in 10.0 mi SE 4.6 mph - 0.00 in   Overcast
12:09 AM 62.1 °F - 61.0 °F 96% 30.04 in 10.0 mi SE 4.6 mph - 0.00 in   Overcast
12:26 AM 62.1 °F - 61.0 °F 96% 30.04 in 10.0 mi ESE 3.5 mph - 0.00 in   Overcast
12:54 AM 62.1 °F - 61.0 °F 96% 30.01 in 10.0 mi Calm Calm - 0.01 in   Overcast
1:09 AM 62.1 °F - 61.0 °F 96% 30.03 in 10.0 mi ESE 4.6 mph - N/A   Overcast
1:54 AM 63.0 °F - 62.1 °F 97% 30.00 in 10.0 mi SE 8.1 mph - N/A   Overcast
2:38 AM 63.0 °F - 62.1 °F 97% 30.00 in 10.0 mi ESE 4.6 mph - N/A   Overcast
2:49 AM 62.6 °F - 62.6 °F 100% 29.99 in 10.0 mi East 4.6 mph - N/A   Overcast
2:54 AM 63.0 °F - 62.1 °F 97% 29.97 in 10.0 mi ESE 3.5 mph - N/A   Overcast
3:54 AM 64.0 °F - 63.0 °F 96% 29.94 in 10.0 mi East 3.5 mph - 0.00 in   Overcast
4:54 AM 64.0 °F - 63.0 °F 96% 29.93 in 2.0 mi SE 3.5 mph - N/A   Overcast
5:54 AM 64.0 °F - 64.0 °F 100% 29.92 in 2.0 mi SSE 5.8 mph - N/A   Overcast
6:14 AM 64.0 °F - 63.0 °F 96% 29.93 in 2.0 mi SE 6.9 mph - N/A   Overcast
6:26 AM 64.9 °F - 64.0 °F 97% 29.93 in 2.0 mi SSE 6.9 mph - N/A   Overcast
6:37 AM 64.9 °F - 64.0 °F 97% 29.92 in 2.0 mi ESE 5.8 mph - N/A   Overcast
6:54 AM 64.9 °F - 64.9 °F 100% 29.90 in 2.0 mi SE 8.1 mph - N/A   Overcast
7:14 AM 66.0 °F - 64.9 °F 96% 29.93 in 2.0 mi SE 9.2 mph - N/A   Overcast
7:54 AM 66.0 °F - 64.9 °F 96% 29.89 in 2.0 mi ESE 8.1 mph - N/A   Overcast
8:07 AM 66.0 °F - 64.9 °F 96% 29.90 in 2.0 mi ESE 11.5 mph - N/A   Overcast
8:46 AM 66.9 °F - 66.0 °F 97% 29.91 in 2.0 mi ESE 5.8 mph - N/A   Overcast
8:54 AM 66.9 °F - 64.9 °F 93% 29.89 in 2.0 mi ESE 9.2 mph - N/A   Overcast
8:58 AM 66.9 °F - 64.9 °F 93% 29.91 in 2.0 mi ESE 8.1 mph - N/A   Overcast
9:24 AM 66.9 °F - 66.0 °F 97% 29.91 in 2.0 mi East 3.5 mph - 0.05 in Rain Light Rain
9:54 AM 68.0 °F - 66.0 °F 93% 29.86 in 2.0 mi East 8.1 mph - 0.06 in   Overcast
10:11 AM 68.0 °F - 66.9 °F 96% 29.88 in 2.0 mi East 5.8 mph - 0.00 in Rain Light Rain
10:29 AM 69.1 °F - 66.9 °F 93% 29.88 in 2.0 mi Variable 3.5 mph - 0.00 in   Overcast
10:54 AM 70.0 °F - 66.9 °F 90% 29.86 in 2.0 mi South 4.6 mph - 0.00 in   Overcast
11:00 AM 70.0 °F - 66.9 °F 90% 29.87 in 10.0 mi SSE 6.9 mph - N/A   Overcast
11:54 AM 72.0 °F - 68.0 °F 87% 29.80 in 10.0 mi SSE 11.5 mph - 0.04 in   Overcast
12:54 PM 72.0 °F - 69.1 °F 91% 29.76 in 10.0 mi SSE 10.4 mph - 0.00 in Rain Light Rain
1:27 PM 73.9 °F - 69.1 °F 85% 29.76 in 10.0 mi South 13.8 mph 23.0 mph 0.00 in Rain Light Rain
1:54 PM 73.0 °F - 68.0 °F 84% 29.71 in 9.0 mi South 11.5 mph 24.2 mph 0.00 in   Light Drizzle
2:27 PM 72.0 °F - 69.1 °F 91% 29.72 in 4.0 mi SSE 11.5 mph - 0.03 in Rain Light Rain
2:54 PM 72.0 °F - 68.0 °F 87% 29.68 in 10.0 mi South 10.4 mph - 0.05 in Rain Light Rain
3:54 PM 75.0 °F - 66.0 °F 73% 29.65 in 10.0 mi South 11.5 mph 21.9 mph 0.00 in   Overcast
4:54 PM 75.0 °F - 66.0 °F 73% 29.65 in 10.0 mi South 13.8 mph 27.6 mph 0.00 in   Overcast
5:48 PM 69.8 °F - 66.2 °F 88% 29.68 in 2.0 mi WSW 12.7 mph 25.3 mph 0.05 in Rain Heavy Rain
5:54 PM 68.0 °F - 64.9 °F 90% 29.67 in 2.0 mi WSW 15.0 mph - 0.12 in Rain Rain
6:03 PM 66.9 °F - 64.0 °F 90% 29.66 in 3.0 mi WSW 13.8 mph 24.2 mph 0.07 in Rain Heavy Rain
6:18 PM 66.0 °F - 64.0 °F 93% 29.68 in 1.8 mi SW 6.9 mph - 0.19 in Rain Heavy Rain
6:30 PM 64.9 °F - 64.0 °F 97% 29.68 in 1.8 mi WSW 12.7 mph 21.9 mph 0.44 in Rain Rain
6:35 PM 64.9 °F - 63.0 °F 93% 29.69 in 4.0 mi WSW 11.5 mph 20.7 mph 0.47 in Rain Light Rain
6:44 PM 64.9 °F - 63.0 °F 93% 29.69 in 9.0 mi SW 12.7 mph - 0.48 in Rain Light Rain
6:54 PM 64.9 °F - 62.1 °F 90% 29.67 in 10.0 mi WSW 15.0 mph 20.7 mph 0.49 in Rain Light Rain
7:54 PM 60.1 °F - 54.0 °F 80% 29.74 in 10.0 mi WNW 11.5 mph 29.9 mph 0.03 in Rain Light Rain
8:54 PM 57.9 °F - 54.0 °F 87% 29.83 in 10.0 mi West 17.3 mph 32.2 mph 0.00 in Rain Light Rain
9:54 PM 54.0 °F - 51.1 °F 90% 29.91 in 10.0 mi WNW 17.3 mph 39.1 mph 0.00 in   Partly Cloudy
10:54 PM 46.0 °F 39.3 °F 28.9 °F 51% 29.96 in 10.0 mi WNW 16.1 mph 31.1 mph N/A   Clear
11:54 PM 44.1 °F 36.5 °F 26.1 °F 49% 30.00 in 10.0 mi West 17.3 mph 32.2 mph N/A   Clear